Change the Weather History Date:

Thursday, May 15, 2014

  Actual Average Record
Temperature  
Mean Temperature 77 °F -  
Max Temperature 95 °F 88 °F 102 °F (1997)
Min Temperature 59 °F 62 °F 53 °F (1998)
Cooling Degree Days 12    
Growing Degree Days 27 (Base 50)    
Moisture  
Dew Point 18 °F    
Average Humidity 11    
Maximum Humidity 18    
Minimum Humidity 6    
Precipitation  
Precipitation 0.00 in - - ()
Sea Level Pressure  
Sea Level Pressure 30.01 in    
Wind  
Wind Speed 3 mph (South)    
Max Wind Speed 13 mph    
Max Gust Speed -    
Visibility 10 miles    
Events      
Averages and records for this station are not official NWS values.
T = Trace of Precipitation, MM = Missing Value Source: NWS Daily Summary

Daily Weather History Graph

Daily Weather History Graph

Search for Another Location

Airport or City:

Trip Planner

Search our weather history database for the weather conditions in past years. The results will help you decide how hot, cold, wet, or windy it might be!

Date:

Astronomy

May. 15, 2014 Rise Set
Actual Time 5:33 AM PDT 7:39 PM PDT
Civil Twilight 5:05 AM PDT 8:08 PM PDT
Nautical Twilight 4:30 AM PDT 8:43 PM PDT
Astronomical Twilight 3:52 AM PDT 9:21 PM PDT
Moon 8:52 PM PDT (5/15) 6:23 AM PDT (5/15)
Length of Visible Light 15h 03m
Length of Day
14h 05m
Full, 99% of the Moon is Illuminated
May 15
Full
May 21
Last Quarter
May 28
New
Jun 5
First Quarter
Jun 12
Full

Hourly Weather History & Observations

Time (PDT) Temp. Dew Point Humidity Pressure Visibility Wind Dir Wind Speed Gust Speed Precip Events Conditions
12:58 AM 67.1 °F 14.9 °F 13% 30.08 in 10.0 mi NNE 3.5 mph - N/A   Clear
1:58 AM 61.7 °F 13.3 °F 15% 30.08 in 10.0 mi East 3.5 mph - N/A   Clear
2:58 AM 60.6 °F 13.6 °F 16% 30.08 in 10.0 mi Calm Calm - N/A   Clear
3:58 AM 62.1 °F 15.4 °F 16% 30.08 in 10.0 mi North 2.3 mph - N/A   Clear
4:58 AM 62.4 °F 16.0 °F 17% 30.08 in 10.0 mi ENE 1.2 mph - N/A   Clear
5:58 AM 59.9 °F 16.0 °F 18% 30.10 in 10.0 mi NNW 4.6 mph - N/A   Clear
6:58 AM 63.7 °F 17.1 °F 17% 30.12 in 10.0 mi SW 1.2 mph - N/A   Clear
7:58 AM 68.5 °F 17.8 °F 14% 30.12 in 10.0 mi Calm Calm - N/A   Clear
8:58 AM 75.2 °F 17.6 °F 11% 30.12 in 10.0 mi Calm Calm - N/A   Clear
9:58 AM 79.9 °F 19.2 °F 10% 30.11 in 10.0 mi West 1.2 mph - N/A   Clear
10:58 AM 84.6 °F 20.3 °F 9% 30.09 in 10.0 mi Calm Calm - N/A   Clear
12:58 PM 89.8 °F 18.5 °F 7% 30.03 in 10.0 mi SW 3.5 mph - N/A   Clear
1:58 PM 91.2 °F 19.4 °F 7% 30.01 in 10.0 mi Variable 1.2 mph - N/A   Clear
2:58 PM 93.6 °F 19.9 °F 7% 29.97 in 10.0 mi SSW 9.2 mph - N/A   Clear
3:58 PM 94.1 °F 21.7 °F 7% 29.94 in 10.0 mi SSW 2.3 mph - N/A   Clear
4:58 PM 95.0 °F 18.7 °F 6% 29.92 in 10.0 mi South 4.6 mph - N/A   Clear
5:58 PM 94.6 °F 18.5 °F 6% 29.90 in 10.0 mi SE 3.5 mph - N/A   Clear
6:58 PM 93.9 °F 18.0 °F 6% 29.89 in 10.0 mi SE 8.1 mph - N/A   Clear
7:58 PM 90.1 °F 18.7 °F 7% 29.89 in 10.0 mi SE 11.5 mph - N/A   Clear
8:58 PM 89.1 °F 18.0 °F 7% 29.90 in 10.0 mi SSE 12.7 mph - N/A   Clear
9:58 PM 86.2 °F 18.9 °F 8% 29.91 in 10.0 mi SSW 8.1 mph - N/A   Clear
10:58 PM 82.2 °F 18.5 °F 9% 29.90 in 10.0 mi SW 2.3 mph - N/A   Clear
11:58 PM 78.8 °F 18.3 °F 10% 29.91 in 10.0 mi NE 3.5 mph - N/A   Clear